Regional Weather Roundup
Issued by NWS

Home | Current Version | Previous Version | Text Only | Print | Product List | Glossary On
Versions: 1 2 3 4 5 6 7 8 9 10 11 12 13 14 15 16 17 18 19 20 21 22 23 24 25 26 27 28 29 30 31 32 33 34 35 36 37 38 39 40 41 42 43 44 45 46 47 48 49 50
491
ASUS43 KFSD 281910
RWRSD

WEATHER ROUNDUP FOR SOUTH DAKOTA
NATIONAL WEATHER SERVICE SIOUX FALLS SD
200 PM CDT SUN MAY 28 2017

NOTE: "FAIR" INDICATES FEW OR NO CLOUDS BELOW 12,000 FEET WITH NO
SIGNIFICANT WEATHER AND/OR OBSTRUCTIONS TO VISIBILITY.


SDZ001>005-009-010-012>017-282000-
NORTHWEST AND NORTH CENTRAL SOUTH DAKOTA

CITY           SKY/WX    TMP DP  RH WIND       PRES   REMARKS
BUFFALO          N/A     66  38  35 NW26G40   29.95F
FAITH            N/A     73  33  23 NW20G28   29.98F
MOBRIDGE       MOSUNNY   76  37  24 NW21G30   29.89F
$$

SDZ012>016-024>037-041>051-057-063-072>074-282000-
SOUTHWEST AND SOUTH CENTRAL SOUTH DAKOTA

CITY           SKY/WX    TMP DP  RH WIND       PRES   REMARKS
RAPID CTY ARPT MOSUNNY   73  38  27 NW20G30   30.07F
PIERRE         SUNNY     75  36  24 NW20G28   29.96F
CUSTER         PTSUNNY   62  37  39 NW7       30.16F
ELLSWORTH AFB  MOSUNNY   72  40  31 NW16G25   30.07F
PHILIP         SUNNY     77  34  21 NW15G31   30.00F
PINE RIDGE     MOSUNNY   72  43  35 N12G20    30.10F
SPEARFISH      FAIR      68  43  40 NW17G24   30.11F
WINNER         FAIR      76  40  27 NW18      29.99F
$$

SDZ004>011-016>023-039-040-282000-
NORTHEAST SOUTH DAKOTA

CITY           SKY/WX    TMP DP  RH WIND       PRES   REMARKS
ABERDEEN       MOSUNNY   73  36  25 NW24G35   29.86F
WATERTOWN      MOSUNNY   68  42  38 NW18G31   29.85S
BROOKINGS      MOSUNNY   70  42  36 NW29G36   29.85F
SISSETON         N/A     73  40  30 NW29G40   29.79S
$$

SDZ017-020-022-023-036>040-048>070-282000-
SOUTHEAST SOUTH DAKOTA

CITY           SKY/WX    TMP DP  RH WIND       PRES   REMARKS
SIOUX FALLS    PTSUNNY   72  46  39 NW23G30   29.88F
HURON          SUNNY     75  39  27 NW24G39   29.88F
CHAMBERLAIN    SUNNY     78  37  22 NW20G28   29.95F
MITCHELL       MOSUNNY   76  38  25 NW22G36   29.91F
YANKTON        SUNNY     73  44  35 NW21      29.92S
$$

ABBREVIATIONS USED IN REMARKS
   TC - TEMPERATURE IN CELSIUS
  WCI - WIND CHILL INDEX
   HX - HEAT INDEX
  VSB - VISIBILITY





USA.gov is the U.S. government's official web portal to all federal, state and local government web resources and services.